www.pogodaiklimat.ru

Погода и климат >> Архив погоды >> Канада >> Нунавут >> Юрика


ПОГОДА в Юрике

  • Прогноз погоды в Юрике
  • Монитор погоды в Юрике

АРХИВ ПОГОДЫ в Юрике

Время (UTC), дата Ветер
(напр.,м/с)
 
Видим.   Явления Облачность Т
(С)
Тd
(С)
f
(%)
Тe
(С)
Тes
(С)
Комфортность P
(гПа)
Po
(гПа)
Тmin
(С)
Tmax
(С)
R
(мм)
R24
(мм)
S
(см)
03 12.03 Ю 4 24 км 5/0
[]
-27.6 -30.8 74 -38 -38 опасность
обморожения
1007.6 1006.1
06 12.03 ЮВ 3 24 км слаб. снег 9/0
[Ac As]
-26.5 -29.6 75 -35 -35 опасность
обморожения
1007.2 1005.7 0.0 12
09 12.03 Ю 4 12 км 10/10 1000 м
[]
-23.7 -26.6 77 -34 -34 опасность
обморожения
1007.2 1005.7
12 12.03 Ю 5 9000 м слаб. снег 10/10 600 м
[Sc]
-23.7 -26.6 77 -35 -35 опасность
обморожения
1006.6 1005.1 0.0 12
15 12.03 ЮВ 8 16 км 10/10 300 м
[]
-23.5 -26.4 77 -37 -37 опасность
обморожения
1005.5 1004.0
18 12.03 ЮВ 10 11 км слаб. снег 10/4 300 м
[Sc Ac As]
-22.1 -24.8 79 -37 -37 опасность
обморожения
1004.3 1002.9 -21.5 0.0 12
21 12.03 ЮВ 11 2400 м 5/5 600 м
[]
-20.3 -22.9 80 -35 -35 опасность
обморожения
1002.7 1001.3
00 13.03 2400 м слаб. снег н/о -20.4 -23.0 80 -34 -34 опасность
обморожения
1001.2 999.8 -26.9 -20.0 0.2 12
03 13.03 ЮВ 9 6000 м 10/10 1000 м
[]
-20.1 -22.7 80 -33 -33 опасность
обморожения
1000.4 999.0
06 13.03 2400 м метель {снег} н/о -20.2 -22.8 80 -32 -32 опасность
обморожения
999.4 998.0 0.0 221
09 13.03 ЮВ 10 2400 м 6/6 300 м
[]
-20.8 -23.4 80 -35 -35 опасность
обморожения
998.4 997.0
12 13.03 Ю 11 9000 м слаб. снег 10/5 300 м
[Sc Ac As Ci fib]
-22.4 -25.1 79 -38 -38 опасность
обморожения
998.0 996.6 0.0 12
15 13.03 ЮВ 8 2400 м 9/9 300 м
[]
-23.3 -26.1 78 -37 -37 опасность
обморожения
998.3 996.9
18 13.03 Ю 10 12 км позёмок {снег} 9/6 200 м
[Sc Ac As]
-24.5 -27.4 77 -39 -39 опасность
обморожения
999.2 997.8 -20.1 0.0 12
21 13.03 ЮВ 5 8000 м 10/10 200 м
[]
-25.6 -28.6 76 -37 -37 опасность
обморожения
1000.5 999.1
00 14.03 ЮВ 7 2400 м позёмок 10/10 200 м
[Sc]
-26.8 -29.9 75 -40 -40 опасность
обморожения
1002.6 1001.2 -26.8 -21.9 12
03 14.03 Ю 4 3200 м 10/10 600 м
[]
-28.2 -31.4 74 -39 -39 опасность
обморожения
1005.3 1003.8
06 14.03 ЮВ 4 24 км ледяные иглы {снег} 3/0
[Ac As]
-30.0 -33.3 73 -41 -41 опасность
обморожения
1007.4 1005.9 0.0 131
09 14.03 ЮВ 7 24 км 5/0
[]
-31.4 -34.9 71 -46 -46 опасность
обморожения
1009.8 1008.3
12 14.03 ЮВ 9 16 км ледяные иглы {снег} 4/1 300 м
[Sc Ac As]
-32.9 -36.5 70 -50 -50 опасность
обморожения
1011.6 1010.1 0.0 12
15 14.03 ЮВ 7 16 км 9/9 200 м
[]
-33.3 -36.9 70 -49 -49 опасность
обморожения
1013.6 1012.1
18 14.03 ЮВ 6 24 км ледяные иглы {снег} 9/3 200 м
[Sc Ac trans Ci fib]
-33.7 -37.4 69 -48 -48 опасность
обморожения
1015.1 1013.6 -30.0 0.0 12
21 14.03 ЮВ 6 14 км 9/9 200 м
[]
-34.5 -38.1 70 -50 -50 опасность
обморожения
1016.9 1015.4
00 15.03 ЮВ 7 24 км ледяные иглы {снег} 9/4 1000 м
[Sc Ac trans]
-35.1 -38.9 68 -51 -51 опасность
обморожения
1017.8 1016.3 -35.3 -32.7 0.0 12
03 15.03 ЮВ 5 24 км 5/5 1000 м
[]
-35.7 -39.5 68 -50 -50 опасность
обморожения
1018.2 1016.7
06 15.03 ЮВ 4 24 км ледяные иглы {снег} 5/0
[Ac As]
-36.4 -40.2 68 -49 -49 опасность
обморожения
1018.0 1016.5 0.0 121
09 15.03 Ю 4 24 км 10/10 600 м
[]
-35.6 -39.4 68 -48 -48 опасность
обморожения
1018.1 1016.6
12 15.03 Ю 3 3200 м ледяные иглы {снег} 10/4 200 м
[Sc Ac As]
-35.3 -39.1 68 -46 -46 опасность
обморожения
1017.4 1015.9 0.0 12
15 15.03 Ю 4 4800 м 9/9 200 м
[]
-34.7 -38.5 68 -47 -47 опасность
обморожения
1017.0 1015.5
18 15.03 ЮВ 3 4800 м ледяные иглы {снег} 10/8 200 м
[Sc Ac As]
-33.8 -37.6 68 -44 -44 опасность
обморожения
1016.7 1015.2 -33.8 0.0 12
21 15.03 ЮВ 5 3200 м 10/10 200 м
[]
-33.0 -36.7 69 -46 -46 опасность
обморожения
1016.6 1015.1
00 16.03 Ю 3 2400 м слаб. снег 10/10 600 м
[Sc]
-32.8 -36.5 69 -43 -43 опасность
обморожения
1016.8 1015.3 -38.3 -32.6 0.0 12
03 16.03 Ю 2 3200 м 10/10 600 м
[]
-33.1 -36.8 69 -40 -40 опасность
обморожения
1017.3 1015.8
06 16.03 СВ 2 24 км ледяные иглы {снег} 3/0
[Ac As]
-35.9 -39.7 68 -43 -43 опасность
обморожения
1017.6 1016.1 0.0 12
09 16.03 СВ 2 24 км 1/0
[]
-37.5 -41.4 67 -45 -45 опасность
обморожения
1018.3 1016.8
12 16.03 СВ 1 24 км ледяные иглы {снег} ясно -39.3 -43.2 66 -45 -45 опасность
обморожения
1018.6 1017.1 0.0 12
15 16.03 СЗ 2 24 км ясно -39.1 -43.1 66 -48 -48 опасность
обморожения
1019.1 1017.6
18 16.03 З 2 24 км ледяные иглы {снег} ясно -38.9 -43.0 65 -48 -47 опасность
обморожения
1019.6 1018.1 -36.0 0.0 12
21 16.03 С 1 24 км ясно -40.3 -44.5 64 -42 -42 опасность
обморожения
1020.4 1018.9
00 17.03 С 1 24 км ледяные иглы {снег} ясно -41.5 -45.6 64 -43 -43 опасность
обморожения
1021.3 1019.7 -41.5 -37.3 0.0 12
03 17.03 СЗ 2 24 км ясно -41.2 -45.3 64 -51 -51 опасность
обморожения
1021.9 1020.3
06 17.03 З 3 24 км ледяные иглы {снег} ясно -41.6 -45.8 63 -54 -54 опасность
обморожения
1021.6 1020.0 0.0 12
09 17.03 З 2 9000 м ясно -42.1 -46.3 63 -50 -50 опасность
обморожения
1021.7 1020.1
12 17.03 Ю 1 24 км ледяные иглы {снег} ясно -42.1 -46.2 64 -48 -48 опасность
обморожения
1021.7 1020.1 0.0 12
15 17.03 В 2 12 км ясно -42.9 -47.2 62 -53 -52 опасность
обморожения
1020.8 1019.2
18 17.03 ЮВ 2 9000 м ледяные иглы {снег} ясно -41.3 -45.6 63 -49 -48 опасность
обморожения
1020.6 1019.0 -40.1 0.0 12
21 17.03 З 2 24 км ясно -40.9 -45.2 63 -49 -48 опасность
обморожения
1021.1 1019.5
00 18.03 С 1 24 км ледяные иглы {снег} 6/0
[Ac As Ci fib]
-42.4 -46.6 63 -44 -44 опасность
обморожения
1021.5 1019.9 -43.9 -40.3 0.0 12
03 18.03 С 1 24 км 1/0
[]
-42.1 -46.3 63 -44 -44 опасность
обморожения
1020.6 1019.0
06 18.03 В 1 24 км ледяные иглы {снег} 5/0
[Ac As]
-43.3 -47.6 62 -49 -49 опасность
обморожения
1019.8 1018.2 0.0 12
09 18.03 ЮВ 1 11 км 3/0
[]
-43.2 -47.4 63 -49 -49 опасность
обморожения
1018.9 1017.3
12 18.03 ЮВ 5 6000 м ледяные иглы {снег} 1/0
[Ac As]
-44.3 -48.7 61 -60 -60 опасность
обморожения
1018.0 1016.4 0.0 12
15 18.03 ЮВ 2 6000 м 3/0
[]
-43.5 -47.8 62 -52 -51 опасность
обморожения
1016.6 1015.0
18 18.03 СВ 1 2400 м ледяные иглы {снег} 1/1 200 м
[St]
-42.0 -46.4 62 -48 -47 опасность
обморожения
1014.8 1013.2 -41.3 0.0 12
21 18.03 Ю 1 1600 м 6/6 300 м
[]
-41.4 -45.6 64 -47 -47 опасность
обморожения
1014.0 1012.4
00 19.03 1200 м слаб. снег н/о -40.6 -44.8 64 -53 -53 опасность
обморожения
1012.9 1011.3 -45.4 -39.3 0.0 12

 

Местоположение метеостанции Юрика (Нунавут, Канада): широта 79.98 долгота -85.93 высота над уровнем моря 10 м.

В архиве по умолчанию представлена погода в Юрике за последнюю неделю. Архивные данные за месяц целиком и за предыдущие месяцы, начиная с января 2011 года, Вы можете получить, выбрав интересующий диапазон дат из раскрывающегося списка и нажав кнопку "Ввод!".


*Определитесь, кто Вы:
робот инопланетянин человек

Внимание! Время в таблицах - всемирное. Для получения местного времени необходимо прибавить поправку, которая равна -6 ч.

Смотрите также архив погоды в соседних городах и на ближайших метеорологических станциях:

Погода в Юрике (Нунавут, Канада) (1 км)
Погода в Сарнии (Онтарио, Канада) (343 км)
Погода в Исачсене (Нунавут, Канада) (382 км)
Погода Mittarfik Qaanaaq (Гренландия) (452 км)
Погода Kitsissut (Гренландия) (471 км)
Погода в Алерте (Нунавут, Канада) (483 км)
Погода в Аэропорту Ресольют Бэй (Нунавут, Канада) (623 км)
Погода в Ресольют Бэй (Нунавут, Канада) (623 км)
Погода в Арктик Бей (Нунавут, Канада) (777 км)
Погода в Понд-Инлете (Нунавут, Канада) (834 км)

Пояснения к столбцам:

Ветер - указаны скорость ветра в м/с - средняя за 10 мин, порывы в срок и между сроками (в фигурных скобках) и направление, откуда дует ветер: С - северный, СВ - северо-восточный, В - восточный, ЮВ - юго-восточный, Ю - южный, ЮЗ - юго-западный, З - западный, СЗ - северо-западный.
Видимость - горизонтальная дальность видимости в метрах или километрах. При видимости от 1 до 10 км при отсутствии осадков обычно наблюдается дымка, при ухудшении видимости до 1 км и менее - туман. В сухую погоду видимость может ухудшаться дымом, пылью или мглою.
Явления - указаны атмосферные явления, наблюдавшиеся в срок или в последний час перед сроком; фигурными скобками обозначены явления, наблюдавшиеся между сроками (за 1-3 часа до срока); квадратными скобками обозначены град или гололедные отложения с указанием их диаметра в мм.
Облачность - указаны через наклонную черту общая и нижняя облачность в баллах и высота нижней границы облаков в метрах; квадратными скобками обозначены формы облаков: Ci - перистые, Cs - перисто-слоистые, Cc - перисто-кучевые, Ac - высококучевые, As - высокослоистые, Sc - слоисто-кучевые, Ns - слоисто-дождевые, Cu - кучевые, Cb - кучево-дождевые. Подробнее классификацию облаков см. в Атласе облаков (PDF).
T - Температура воздуха - температура, измеренная на высоте 2 м над землей.
Td - Температура точки росы - температура, при понижении до которой содержащийся в воздухе водяной пар достигнет насыщения.
f - Относительная влажность воздуха - влажноcть воздуха, измеренная на высоте 2 м над землей.
Te - Эффективная температура - температура, которую ощущает одетый по сезону человек в тени. Характеристика душности погоды. При расчете учитывается влияние влажности воздуха и скорости ветра на теплоощущения человека.
Tes - Эффективная температура на солнце - температура, которую ощущает человек, с поправкой на солнечный нагрев. Характеристика знойности погоды. Зависит от высоты солнца над горизонтом, облачности и скорости ветра. Ночью, в пасмурную погоду, а также при ветре 12 м/с и более поправка равна нулю.
P - Атмосферное давление - приведенное к уровню моря атмосферное давление.
Po - Атмосферное давление - измеренное на уровне метеостанции атмосферное давление.
Tmin - Минимальная температура - минимум температуры воздуха на высоте 2 м над землей.
Tmax - Максимальная температура - максимум температуры воздуха на высоте 2 м над землей.
R - Количество осадков - Количество выпавших осадков за период времени, мм. При наведении курсора мыши на число - период времени, за который выпало указанное количество осадков.
R24 - Количество осадков - Количество выпавших осадков за 24 часа, мм.
S - Снежный покров - Высота снежного покрова, см. При наведении курсора мыши на число - состояние снежного покрова и степень покрытия местности в баллах.